STARLINK-30754, 58124

Orbit data source: Space-Track

STARLINK-30754, 58124 is a payload satellite owned by SpaceX/Seattle (US) in LEO that was launched on Sun, 22 Oct 2023 UTC via an FALCON 9 launch vehicle from the Air Force Eastern Test Range (AFETR). Payload-class satellites include a variety of spacecraft equipped with specific instruments for various scientific and technological missions. These include communications satellites like Starlink; space stations such as the ISS; scientific satellites like the Hubble; Earth observation satellites from companies like Planet Labs, Umbra, and HawkEye 360; GPS; miniature CubeSats for education and research; and military/defense satellites.

Loading next visibility...
Identifier
58124, 2023-162G
Orbit
LEO
Country
Flag of USUS
Related business
Manufacturer
SpaceX/Seattle
Mission
Operational Commercial Communications
Bus & Motor
STARLINK V2M, Unknown motor
Mass
730 kg wet, ~700 kg dry
Launch date (UTC)
2023-10-22 (2 years ago)
Launch vehicle
FALCON 9
Launch site
Air Force Eastern Test Range (AFETR)
Object type
Payload
Rocket body
Debris
Shape & HBR
Box + 2 Pan, 17.7 m
Radar Cross Section
33.884 m², Large (>1 m²)

Expand to show TLE details & history
Last TLE update: 22 hours ago

TLE from 22 hours ago
0 STARLINK-30754
1 58124U 23162G   25348.70654437  .00000677  00000-0  65225-4 0  9996
2 58124  43.0027 235.0824 0001133 273.0063  87.0649 15.02527660113723
Epoch: 2025-12-14T16:57Z
TLE epoch observation values (Epoch: 2025-12-14T16:57:25.433Z)
Latitude
-0.00007°
Longitude
-102.88925°
Altitude
558.843 km
Speed
7.584 km/s
True Right ascension
15h 40m 19s
True Declination
0° 00' 00"
Sunlit
Object was in daylight at epoch
Visualization orbit readout
Latitude
Unknown
Longitude
Unknown
Altitude
Unknown
Speed
Unknown
Apparent Right ascension
Unknown
Apparent Declination
Unknown
Sunlit
N/A
Visualization observer readout
Local Sidereal Time
13:25:38
Azimuth
Unknown
Elevation
Unknown
Doppler factor
Unknown
Orbital elements
Apogee altitude
561.815 km
Perigee altitude
560.242 km
Semi-major axis
6,939.166 km
Eccentricity
0.00011
Inclination
43.0027°
RAAN
235.0824°
Arg. of periapsis
273.0063°
True anomaly
87.07787°
Mean anomaly
87.0649°
Eccentric anomaly
87.07138°
Mean motion
3.75476 °/min
Orbital period
95.88 mins
BSTAR
0.000065225
Loading maneuver chart data...
Computing Atmospheric mass density...
Loading historical data...
Loading historical data...
Loading historical data...
Loading historical data...
Loading historical data...
Loading historical data...
Loading historical data...

Documentation

Showing up to 5 results
|